Location: Newark
(51.3000°N, 178.2000°W)
Time: 17:43:17
(UTC+00:00)

ISS - Visible Passes

Search period start: 09 May 2021 00:00
Search period end: 19 May 2021 00:00
Orbit: 418 x 421 km, 51.6° (Epoch: 09 May)

Date Brightness Start Highest point End Pass type
(mag) Time Alt. Az. Time Alt. Az. Time Alt. Az.
09 May -2.2 12:26:55 26° E 12:26:55 26° E 12:28:40 10° E visible
09 May -3.7 13:59:50 19° W 14:02:07 83° N 14:05:31 10° E visible
10 May -1.1 11:40:54 12° E 11:40:54 12° E 11:41:10 10° E visible
10 May -3.8 13:13:50 48° W 13:14:40 89° N 13:18:04 10° E visible
10 May -3.8 14:48:08 10° W 14:51:32 83° SSW 14:54:55 10° ESE visible
11 May -3.5 12:27:46 59° E 12:27:46 59° E 12:30:37 10° E visible
11 May -3.8 14:00:42 10° W 14:04:05 87° N 14:07:29 10° E visible
12 May -2.1 11:41:39 24° E 11:41:39 24° E 11:43:10 10° E visible
12 May -3.8 13:14:35 22° W 13:16:38 82° N 13:20:01 10° E visible
12 May -3.6 14:50:05 10° W 14:53:24 54° SSW 14:56:43 10° SE visible
13 May -1.2 10:55:25 12° E 10:55:25 12° E 10:55:43 10° E visible
13 May -3.8 12:28:20 48° W 12:29:10 83° N 12:32:34 10° E visible
13 May -3.9 14:02:38 10° W 14:06:00 69° SSW 14:09:22 10° ESE visible
14 May-0.810:08:43E10:08:43E10:00:32SWvisible
14 May -3.9 11:41:33 80° W 11:41:43 88° N 11:45:06 10° E visible
14 May -3.9 13:15:11 10° W 13:18:34 83° SSW 13:21:58 10° ESE visible
14 May -2.9 14:52:09 10° W 14:55:08 29° SSW 14:58:07 10° SSE visible
15 May -2.9 09:14:48 10° SSW 09:17:43 27° SSE 09:20:39 10° E visible
15 May -3.9 10:50:53 10° WSW 10:54:16 81° S 10:57:39 10° E visible
15 May -3.8 12:27:44 10° W 12:31:07 87° N 12:34:31 10° E visible
15 May -3.4 14:04:36 10° W 14:07:48 40° SSW 14:11:00 10° SE visible
16 May -2.4 08:27:55 10° SSW 08:30:26 20° SE 08:32:58 10° E visible
16 May -3.9 10:03:29 10° WSW 10:06:50 67° SSE 10:10:12 10° E visible
16 May -3.8 11:40:16 10° W 11:43:39 83° N 11:47:03 10° E visible
16 May -3.7 13:17:07 10° W 13:20:26 53° SSW 13:23:44 10° SE visible
16 May -2.0 14:54:44 10° WSW 14:56:42 15° SW 14:58:39 10° S visible
17 May -3.6 09:16:09 10° SW 09:19:26 51° SSE 09:22:44 10° E visible
17 May -3.8 10:52:48 10° W 10:56:11 83° N 10:59:35 10° E visible
17 May -3.9 12:29:39 10° W 12:32:50 66° SW 12:32:50 66° SW visible
17 May-0.714:14:08SSE14:14:08SSE14:05:40Wvisible
18 May -3.2 08:28:55 10° SW 08:32:03 38° SSE 08:35:13 10° E visible
18 May -3.8 10:05:21 10° W 10:08:43 88° N 10:12:07 10° E visible
18 May -3.9 11:42:12 10° W 11:45:34 83° SSW 11:46:05 61° ESE visible
